This is the latest recevied weather packets stored in our database for station/object KF4LQQ-13. If no packets are shown the sender has not sent any weather packets the latest 10 day(s).
| Time | Temp. | Humidity | Pressure | Rain* | Wind** | Luminosity | Snow |
|---|---|---|---|---|---|---|---|
| 1777776820 | 22.78° C | - | 1010.6 hPa | 15.24 mm | - | - | - |
| 1777776218 | 22.78° C | - | 1011.1 hPa | 15.24 mm | - | - | - |
| 1777775618 | 23.33° C | - | 1011 hPa | 15.24 mm | - | - | - |
| 1777775320 | 22.22° C | - | 1010.4 hPa | 15.24 mm | - | - | - |
| 1777775017 | 22.22° C | - | 1010.4 hPa | 15.24 mm | - | - | - |
| 1777774417 | 22.78° C | - | 1010.7 hPa | 15.24 mm | - | - | - |
| 1777773817 | 22.78° C | - | 1010.9 hPa | 15.24 mm | - | - | - |
| 1777772615 | 22.78° C | - | 1010.7 hPa | 15.24 mm | - | - | - |
| 1777772013 | 22.78° C | - | 1010.6 hPa | 15.24 mm | - | - | - |
| 1777770812 | 22.78° C | - | 1009 hPa | 15.24 mm | - | - | - |
| 1777770211 | 22.78° C | - | 1009.4 hPa | 15.24 mm | - | - | - |
| 1777769608 | 22.78° C | - | 1009.5 hPa | 15.24 mm | - | - | - |
| 1777769008 | 23.33° C | - | 1009.8 hPa | 14.99 mm | - | - | - |
| 1777768406 | 22.78° C | - | 1009.3 hPa | 14.99 mm | - | - | - |
| 1777767205 | 22.78° C | - | 1009.4 hPa | 14.99 mm | - | - | - |
| 1777766002 | 23.33° C | - | 1008.7 hPa | 14.99 mm | - | - | - |
| 1777764801 | 22.78° C | - | 1009.2 hPa | 14.73 mm | - | - | - |
| 1777764201 | 23.33° C | - | 1008.9 hPa | 14.73 mm | - | - | - |
| 1777763600 | 23.89° C | - | 1009.4 hPa | 14.48 mm | - | - | - |
| 1777763000 | 23.89° C | - | 1008.9 hPa | 14.48 mm | - | - | - |
| 1777762399 | 23.33° C | - | 1008.8 hPa | 14.48 mm | - | - | - |
| 1777761799 | 23.33° C | - | 1009.2 hPa | 14.22 mm | - | - | - |
| 1777761197 | 24.44° C | - | 1008.8 hPa | 14.22 mm | - | - | - |
| 1777760596 | 23.89° C | - | 1009 hPa | 13.97 mm | - | - | - |
| 1777759992 | 24.44° C | - | 1008.9 hPa | 13.46 mm | - | - | - |
* Rain since midnight (hover to see other rain measurements)
** Current wind speed in m/s (hover to see current wind gust speed)